�������l�o���
Date,Time,MP-1(��Sv/h),MP-2(��Sv/h),MP-3(��Sv/h),MP-4(��Sv/h),MP-5(��Sv/h),MP-6(��Sv/h),MP-7(��Sv/h),MP-8(��Sv/h),����,����(m/s),���J
2017/04/02,00:00,0.991,1.608,1.088,1.915,1.312,0.536,0.988,0.918,�k�k��,1.5,�L
2017/04/02,00:10,0.991,1.608,1.087,1.916,1.313,0.535,0.987,0.917,�k,1.9,�L
2017/04/02,00:20,0.990,1.608,1.087,1.918,1.316,0.535,0.989,0.917,�k�k��,2.0,�L
2017/04/02,00:30,0.989,1.608,1.088,1.917,1.316,0.535,0.986,0.916,�k�k��,2.8,�L
2017/04/02,00:40,0.989,1.608,1.089,1.917,1.311,0.536,0.987,0.916,�k�k��,2.9,�L
2017/04/02,00:50,0.990,1.608,1.087,1.918,1.314,0.537,0.987,0.918,�k�k��,2.5,�L
2017/04/02,01:00,0.989,1.609,1.087,1.916,1.314,0.536,0.988,0.917,�k�k��,2.3,�L
2017/04/02,01:10,0.990,1.609,1.086,1.918,1.314,0.534,0.987,0.918,�k��,2.2,�L
2017/04/02,01:20,0.990,1.609,1.086,1.918,1.316,0.536,0.987,0.918,���k��,2.9,�L
2017/04/02,01:30,0.990,1.607,1.085,1.919,1.316,0.535,0.988,0.918,���k��,3.3,�L
2017/04/02,01:40,0.989,1.609,1.087,1.919,1.314,0.535,0.988,0.919,���k��,3.8,�L
2017/04/02,01:50,0.988,1.608,1.087,1.915,1.313,0.534,0.986,0.917,���k��,3.4,�L
2017/04/02,02:00,0.988,1.605,1.087,1.917,1.312,0.536,0.989,0.917,�k��,2.3,�L
2017/04/02,02:10,0.989,1.607,1.086,1.915,1.311,0.534,0.985,0.918,�k��,1.7,�L
2017/04/02,02:20,0.989,1.606,1.083,1.917,1.311,0.534,0.987,0.917,�k��,1.7,�L
2017/04/02,02:30,0.990,1.610,1.084,1.914,1.313,0.537,0.987,0.918,�k��,1.7,�L
2017/04/02,02:40,0.990,1.609,1.087,1.916,1.312,0.534,0.986,0.917,�k�k��,1.5,��
2017/04/02,02:50,0.989,1.607,1.088,1.919,1.315,0.535,0.987,0.917,�k��,1.4,�L
2017/04/02,03:00,0.988,1.610,1.084,1.916,1.314,0.533,0.986,0.915,�k��,1.1,�L
2017/04/02,03:10,0.988,1.605,1.087,1.917,1.314,0.536,0.986,0.919,�k��,1.4,��
2017/04/02,03:20,0.986,1.606,1.086,1.915,1.312,0.536,0.984,0.919,�k��,1.4,��
2017/04/02,03:30,0.990,1.607,1.085,1.915,1.312,0.535,0.985,0.919,�k��,1.5,��
2017/04/02,03:40,0.990,1.607,1.086,1.914,1.313,0.535,0.985,0.917,�k��,1.7,��
2017/04/02,03:50,0.989,1.609,1.084,1.916,1.314,0.536,0.984,0.918,�k��,1.5,��
2017/04/02,04:00,0.986,1.602,1.087,1.919,1.313,0.535,0.985,0.918,�k��,1.5,��
2017/04/02,04:10,0.988,1.607,1.086,1.914,1.311,0.535,0.983,0.916,�k��,1.7,��
2017/04/02,04:20,0.987,1.606,1.087,1.913,1.313,0.535,0.985,0.919,�k��,1.2,��
2017/04/02,04:30,0.990,1.605,1.083,1.916,1.311,0.535,0.985,0.917,�k��,1.2,��
2017/04/02,04:40,0.989,1.608,1.082,1.915,1.313,0.536,0.984,0.917,�k��,1.7,��
2017/04/02,04:50,0.987,1.607,1.085,1.917,1.311,0.536,0.984,0.917,�k��,2.0,��
2017/04/02,05:00,0.988,1.608,1.085,1.917,1.313,0.534,0.985,0.918,�k��,2.0,��
2017/04/02,05:10,0.986,1.608,1.083,1.911,1.313,0.535,0.985,0.918,�k��,1.9,��
2017/04/02,05:20,0.987,1.605,1.085,1.913,1.313,0.536,0.984,0.916,���k��,1.7,��
2017/04/02,05:30,0.988,1.606,1.084,1.919,1.314,0.536,0.985,0.919,�k��,1.9,��
2017/04/02,05:40,0.987,1.601,1.085,1.917,1.311,0.536,0.984,0.918,���k��,1.7,��
2017/04/02,05:50,0.986,1.606,1.084,1.915,1.312,0.534,0.984,0.916,�k��,2.3,��
2017/04/02,06:00,0.986,1.605,1.083,1.913,1.313,0.535,0.986,0.918,���k��,3.0,��
2017/04/02,06:10,0.987,1.607,1.086,1.917,1.316,0.535,0.987,0.917,�k��,2.6,��
2017/04/02,06:20,0.989,1.605,1.085,1.916,1.313,0.535,0.987,0.918,�k��,3.2,��
2017/04/02,06:30,0.988,1.609,1.083,1.916,1.315,0.536,0.987,0.917,�k��,3.9,��
2017/04/02,06:40,0.988,1.607,1.089,1.919,1.314,0.536,0.986,0.918,�k��,4.3,��
2017/04/02,06:50,0.990,1.612,1.085,1.918,1.313,0.536,0.989,0.919,�k�k��,4.8,��
2017/04/02,07:00,0.989,1.612,1.086,1.921,1.314,0.537,0.985,0.919,�k�k��,4.2,��
2017/04/02,07:10,0.990,1.611,1.088,1.920,1.314,0.537,0.986,0.917,�k�k��,3.7,��
2017/04/02,07:20,0.988,1.610,1.085,1.918,1.314,0.536,0.987,0.919,�k�k��,3.3,��
2017/04/02,07:30,0.990,1.610,1.086,1.920,1.314,0.536,0.986,0.919,�k,2.3,��
2017/04/02,07:40,0.991,1.612,1.086,1.918,1.315,0.536,0.988,0.917,�k,2.8,��
2017/04/02,07:50,0.992,1.615,1.091,1.920,1.314,0.536,0.987,0.918,�k�k��,2.3,��
2017/04/02,08:00,0.992,1.614,1.088,1.917,1.316,0.535,0.988,0.919,�k,3.8,��
2017/04/02,08:10,0.993,1.616,1.087,1.921,1.319,0.537,0.991,0.919,�k�k��,3.3,��
2017/04/02,08:20,0.993,1.616,1.089,1.920,1.317,0.537,0.989,0.920,�k�k��,4.0,��
2017/04/02,08:30,0.993,1.616,1.089,1.921,1.317,0.537,0.988,0.922,�k�k��,4.7,��
2017/04/02,08:40,0.993,1.615,1.092,1.919,1.320,0.536,0.990,0.919,�k�k��,4.8,��
2017/04/02,08:50,0.996,1.616,1.090,1.922,1.319,0.536,0.987,0.922,�k�k��,4.2,��
2017/04/02,09:00,0.994,1.615,1.092,1.922,1.320,0.536,0.988,0.920,�k��,3.7,��
2017/04/02,09:10,0.994,1.612,1.092,1.923,1.320,0.537,0.986,0.920,�k��,4.5,��
2017/04/02,09:20,0.994,1.616,1.093,1.922,1.320,0.538,0.988,0.919,�k��,4.1,��
2017/04/02,09:30,0.997,1.617,1.092,1.921,1.321,0.537,0.986,0.918,�k��,4.4,��
2017/04/02,09:40,0.996,1.617,1.091,1.924,1.324,0.538,0.988,0.918,�k��,4.7,��
2017/04/02,09:50,0.996,1.617,1.093,1.924,1.323,0.537,0.987,0.919,�k��,5.7,��
2017/04/02,10:00,0.997,1.620,1.092,1.924,1.324,0.540,0.988,0.919,�k��,5.4,��
2017/04/02,10:10,1.000,1.618,1.094,1.925,1.324,0.536,0.987,0.921,�k��,4.8,��
2017/04/02,10:20,0.999,1.621,1.092,1.926,1.327,0.538,0.987,0.919,�k��,4.6,��
2017/04/02,10:30,1.001,1.624,1.095,1.927,1.328,0.537,0.988,0.918,�k��,4.7,��
2017/04/02,10:40,1.001,1.620,1.093,1.928,1.328,0.536,0.988,0.919,���k��,4.9,��
2017/04/02,10:50,1.001,1.619,1.096,1.928,1.328,0.538,0.987,0.918,��,5.0,��
2017/04/02,11:00,0.998,1.624,1.098,1.926,1.328,0.538,0.988,0.919,��,3.8,��
2017/04/02,11:10,1.001,1.625,1.099,1.928,1.330,0.538,0.989,0.918,��,4.2,��
2017/04/02,11:20,1.004,1.624,1.097,1.930,1.323,0.536,0.989,0.919,��,4.0,�L
2017/04/02,11:30,1.001,1.623,1.098,1.928,1.327,0.539,0.988,0.919,��,3.2,��
2017/04/02,11:40,1.005,1.624,1.099,1.927,1.326,0.540,0.988,0.920,��,2.6,��
2017/04/02,11:50,1.004,1.624,1.099,1.931,1.331,0.537,0.987,0.919,��,3.1,��
2017/04/02,12:00,1.005,1.623,1.099,1.928,1.331,0.540,0.988,0.918,��,3.1,��
2017/04/02,12:10,1.008,1.627,1.099,1.931,1.333,0.537,0.988,0.917,��,3.4,��
2017/04/02,12:20,1.004,1.627,1.100,1.932,1.332,0.540,0.989,0.920,��,3.1,��
2017/04/02,12:30,1.005,1.626,1.099,1.929,1.337,0.540,0.989,0.919,���k��,2.8,��
2017/04/02,12:40,1.004,1.628,1.101,1.932,1.334,0.538,0.989,0.920,���k��,3.0,��
2017/04/02,12:50,1.007,1.630,1.101,1.934,1.333,0.538,0.989,0.922,�k��,3.2,��
2017/04/02,13:00,1.008,1.630,1.101,1.933,1.332,0.539,0.988,0.920,���k��,3.9,��
2017/04/02,13:10,1.006,1.634,1.102,1.933,1.336,0.541,0.992,0.919,��,4.0,��
2017/04/02,13:20,1.009,1.630,1.102,1.933,1.335,0.540,0.989,0.919,���k��,3.5,��
2017/04/02,13:30,1.005,1.633,1.102,1.931,1.336,0.541,0.989,0.923,���k��,4.0,��
2017/04/02,13:40,1.005,1.631,1.099,1.930,1.335,0.541,0.991,0.918,��,3.1,��
2017/04/02,13:50,1.005,1.631,1.101,1.932,1.334,0.540,0.990,0.921,���k��,3.7,��
2017/04/02,14:00,1.006,1.631,1.101,1.936,1.335,0.541,0.990,0.923,�k��,3.7,��
2017/04/02,14:10,1.005,1.631,1.103,1.936,1.335,0.539,0.989,0.922,���k��,3.1,��
2017/04/02,14:20,1.006,1.637,1.103,1.934,1.333,0.540,0.992,0.920,���k��,2.6,��
2017/04/02,14:30,1.008,1.636,1.103,1.934,1.337,0.539,0.990,0.922,��,2.5,��
2017/04/02,14:40,1.009,1.638,1.104,1.938,1.335,0.541,0.991,0.920,��,2.6,��
2017/04/02,14:50,1.009,1.637,1.103,1.936,1.338,0.540,0.991,0.922,��,1.7,��
2017/04/02,15:00,1.010,1.635,1.102,1.935,1.334,0.538,0.991,0.921,�쓌,2.3,��
2017/04/02,15:10,1.009,1.637,1.102,1.934,1.339,0.540,0.990,0.922,���쓌,2.5,��
2017/04/02,15:20,1.006,1.638,1.105,1.938,1.338,0.541,0.990,0.922,�쓌,2.2,��
2017/04/02,15:30,1.009,1.637,1.103,1.934,1.337,0.540,0.991,0.921,���쓌,2.0,��
2017/04/02,15:40,1.010,1.640,1.106,1.938,1.337,0.541,0.990,0.919,��,2.0,��
2017/04/02,15:50,1.009,1.638,1.104,1.935,1.337,0.540,0.991,0.921,���쓌,2.2,��
2017/04/02,16:00,1.010,1.637,1.105,1.936,1.337,0.539,0.992,0.920,���쓌,2.2,��
2017/04/02,16:10,1.011,1.639,1.106,1.937,1.339,0.541,0.991,0.922,�쓌,1.5,��
2017/04/02,16:20,1.009,1.640,1.105,1.939,1.338,0.540,0.990,0.924,���쓌,1.5,��
2017/04/02,16:30,1.011,1.638,1.105,1.934,1.336,0.541,0.990,0.924,��쓌,1.9,��
2017/04/02,16:40,1.010,1.635,1.103,1.936,1.337,0.542,0.993,0.926,�쓌,2.0,��
2017/04/02,16:50,1.010,1.639,1.102,1.937,1.338,0.541,0.991,0.922,���쓌,2.6,��
2017/04/02,17:00,1.009,1.639,1.105,1.938,1.340,0.542,0.992,0.924,�쓌,2.0,��
2017/04/02,17:10,1.010,1.636,1.103,1.937,1.340,0.541,0.991,0.923,�쓌,2.5,��
2017/04/02,17:20,1.007,1.637,1.104,1.939,1.340,0.541,0.991,0.924,��쓌,3.5,��
2017/04/02,17:30,1.007,1.638,1.104,1.939,1.341,0.541,0.992,0.922,��쓌,3.1,��
2017/04/02,17:40,1.007,1.636,1.105,1.937,1.340,0.541,0.993,0.921,��쓌,3.0,��
2017/04/02,17:50,1.008,1.639,1.106,1.935,1.342,0.541,0.992,0.922,��,3.0,��
2017/04/02,18:00,1.009,1.639,1.102,1.937,1.339,0.540,0.993,0.925,��,2.9,��
2017/04/02,18:10,1.007,1.638,1.103,1.937,1.340,0.540,0.994,0.922,��,3.8,��
2017/04/02,18:20,1.008,1.636,1.105,1.937,1.343,0.539,0.991,0.923,��,3.4,��
2017/04/02,18:30,1.008,1.639,1.102,1.938,1.340,0.541,0.994,0.923,��,3.0,��
2017/04/02,18:40,1.008,1.637,1.103,1.937,1.339,0.539,0.993,0.922,��쐼,3.7,��
2017/04/02,18:50,1.008,1.636,1.103,1.937,1.338,0.540,0.994,0.922,��쐼,3.8,��
2017/04/02,19:00,1.009,1.637,1.103,1.939,1.340,0.540,0.994,0.923,��쐼,4.6,��
2017/04/02,19:10,1.009,1.637,1.103,1.935,1.340,0.540,0.992,0.923,�쐼,4.6,��
2017/04/02,19:20,1.008,1.638,1.105,1.939,1.340,0.540,0.991,0.921,�쐼,5.6,��
2017/04/02,19:30,1.007,1.637,1.104,1.938,1.341,0.539,0.994,0.921,�쐼,5.4,��
2017/04/02,19:40,1.008,1.636,1.102,1.935,1.340,0.539,0.993,0.922,���쐼,4.1,��
2017/04/02,19:50,1.007,1.638,1.105,1.936,1.342,0.539,0.993,0.923,���쐼,4.2,��
2017/04/02,20:00,1.007,1.636,1.105,1.937,1.340,0.541,0.992,0.923,���쐼,4.1,��
2017/04/02,20:10,1.010,1.639,1.101,1.935,1.343,0.539,0.991,0.922,��,3.9,��
2017/04/02,20:20,1.008,1.637,1.104,1.940,1.342,0.540,0.991,0.921,��,3.9,��
2017/04/02,20:30,1.008,1.636,1.105,1.936,1.341,0.539,0.993,0.923,���k��,4.3,��
2017/04/02,20:40,1.008,1.635,1.104,1.938,1.340,0.540,0.993,0.922,�k��,5.3,��
2017/04/02,20:50,1.008,1.636,1.103,1.938,1.342,0.540,0.994,0.922,�k��,5.3,��
2017/04/02,21:00,1.008,1.633,1.105,1.936,1.341,0.539,0.993,0.922,�k�k��,5.6,��
2017/04/02,21:10,1.007,1.637,1.102,1.937,1.339,0.539,0.994,0.921,�k�k��,5.7,��
2017/04/02,21:20,1.007,1.638,1.102,1.936,1.341,0.540,0.993,0.922,�k�k��,5.5,��
2017/04/02,21:30,1.007,1.636,1.101,1.938,1.339,0.539,0.994,0.923,�k�k��,5.6,��
2017/04/02,21:40,1.008,1.637,1.102,1.937,1.339,0.538,0.993,0.921,�k�k��,5.9,��
2017/04/02,21:50,1.004,1.636,1.102,1.936,1.343,0.539,0.994,0.922,�k�k��,5.7,��
2017/04/02,22:00,1.006,1.636,1.103,1.938,1.340,0.539,0.994,0.922,�k,5.8,��
2017/04/02,22:10,1.006,1.634,1.103,1.932,1.338,0.538,0.992,0.921,�k,4.7,��
2017/04/02,22:20,1.007,1.636,1.103,1.933,1.341,0.541,0.991,0.921,�k,3.8,��
2017/04/02,22:30,1.005,1.636,1.102,1.938,1.339,0.540,0.989,0.922,�k�k��,4.3,��
2017/04/02,22:40,1.004,1.634,1.100,1.936,1.339,0.539,0.992,0.922,�k�k��,4.3,��
2017/04/02,22:50,1.006,1.635,1.102,1.938,1.338,0.539,0.989,0.922,�k�k��,4.4,��
2017/04/02,23:00,1.006,1.637,1.101,1.936,1.339,0.539,0.991,0.920,�k�k��,3.4,��
2017/04/02,23:10,1.004,1.635,1.101,1.935,1.339,0.539,0.991,0.922,�k�k��,3.2,��
2017/04/02,23:20,1.006,1.634,1.101,1.937,1.340,0.539,0.990,0.923,���k��,3.4,��
2017/04/02,23:30,1.007,1.635,1.101,1.933,1.338,0.540,0.987,0.920,���k��,3.2,��
2017/04/02,23:40,1.004,1.634,1.102,1.935,1.338,0.539,0.988,0.923,���k��,3.5,��
2017/04/02,23:50,1.005,1.633,1.099,1.935,1.337,0.538,0.989,0.921,���k��,3.0,��
